Date String (YYYY-MM-DD hh:mm:ss) UTC,Instrument flags,absolute air pressure of the measurement (hPa),sample flow rate (lpm),inlet stack bypass flow (lpm),air temperature of the measurement (°C),ambient temperature measured by the external sensor (°C),aerosol sample conditioner tube jacket temperature (°C),OPC LED temperature (°C),internal box temperature (°C),relative humidity of the measurement (%),span deviation,mass concentration of particles derived from Lorenz-Mie calculation of OPC scattering (μg/m³),mass concentration of particles derived from Lorenz-Mie calculation of OPC scattering (μg/m³),mass concentration of particles derived from Lorenz-Mie calculation of OPC scattering (μg/m³)
DateTimeUTC,F1_M11,P_M11,Q1_M11,Q2_M11,T1_M11,T2_M11,T3_M11,T4_M11,T5_M11,U1_M11,ZSPAN_M11,X0_M11,X2_M11,X1_M11
2023-09-25 21:00:00,SystemResetWarning,0835.2,5.01,000.00,027.8,024.3,000.0,036.0,029.2,11.5,0000.3,0008.47,0003.83,0003.32
2023-09-25 21:01:00,SystemResetWarning,0835.1,5.02,000.00,027.7,024.6,000.0,036.0,029.1,11.5,0000.4,0008.44,0003.82,0003.31
2023-09-25 21:02:00,SystemResetWarning,0835.2,4.99,000.00,027.7,025.0,000.0,036.0,029.1,11.7,0000.6,0008.31,0003.80,0003.31
2023-09-25 21:03:00,SystemResetWarning,0835.2,5.00,000.00,027.7,025.4,000.0,036.1,029.2,11.6,0001.2,0008.11,0003.81,0003.32
2023-09-25 21:04:00,SystemResetWarning,0835.2,5.00,000.00,027.7,025.8,000.0,036.1,029.3,11.5,0001.7,0007.75,0003.82,0003.32
2023-09-25 21:05:00,SystemResetWarning,0835.2,5.01,000.00,027.8,026.1,000.0,036.1,029.4,11.5,0000.5,0008.06,0003.81,0003.32
2023-09-25 21:06:00,SystemResetWarning,0835.2,5.00,000.00,027.8,026.4,000.0,036.1,029.5,11.4,0002.0,0008.38,0003.84,0003.32
2023-09-25 21:07:00,SystemResetWarning,0835.2,5.00,000.00,027.9,026.7,000.0,036.1,029.6,11.5,0001.6,0008.39,0003.83,0003.32
2023-09-25 21:08:00,SystemResetWarning,0835.2,5.00,000.00,027.9,026.9,000.0,036.2,029.7,11.6,0001.5,0008.22,0003.83,0003.32
2023-09-25 21:09:00,SystemResetWarning,0835.2,5.00,000.00,028.0,026.9,000.0,036.2,029.7,11.7,0001.7,0007.86,0003.82,0003.33
2023-09-25 21:10:00,SystemResetWarning,0835.2,4.98,000.00,027.9,025.4,000.0,036.1,029.3,11.5,0001.8,0007.94,0003.81,0003.33
2023-09-25 21:11:00,SystemResetWarning,0835.1,5.01,000.00,027.8,024.2,000.0,036.1,029.1,11.7,0002.3,0008.15,0003.86,0003.34
2023-09-25 21:12:00,SystemResetWarning,0835.1,5.01,000.00,027.7,024.4,000.0,036.0,029.1,11.8,0002.2,0008.29,0003.92,0003.35
2023-09-25 21:13:00,SystemResetWarning,0835.1,4.99,000.00,027.7,024.7,000.0,036.0,029.1,11.8,0002.4,0008.40,0003.96,0003.34
2023-09-25 21:14:00,SystemResetWarning,0835.1,5.00,000.00,027.7,025.1,000.0,036.0,029.2,12.1,0002.3,0008.42,0003.97,0003.35
2023-09-25 21:15:00,SystemResetWarning,0835.2,5.00,000.00,027.7,025.5,000.0,036.1,029.3,12.8,0002.5,0008.26,0003.95,0003.36
2023-09-25 21:16:00,SystemResetWarning,0835.1,5.00,000.00,027.7,025.9,000.0,036.1,029.4,12.2,0002.1,0008.08,0004.00,0003.38
2023-09-25 21:17:00,SystemResetWarning,0835.1,5.01,000.00,027.8,026.2,000.0,036.1,029.5,11.9,0002.2,0008.29,0004.04,0003.40
2023-09-25 21:18:00,SystemResetWarning,0835.1,5.01,000.00,027.8,026.5,000.0,036.1,029.6,11.7,0002.7,0009.02,0004.08,0003.41
2023-09-25 21:19:00,SystemResetWarning,0835.2,4.99,000.00,027.9,026.8,000.0,036.1,029.6,11.3,0002.9,0009.72,0004.10,0003.42
2023-09-25 21:20:00,SystemResetWarning,0835.1,4.99,000.00,027.9,026.9,000.0,036.2,029.7,10.8,0002.9,0009.70,0004.10,0003.42
2023-09-25 21:21:00,SystemResetWarning,0835.1,5.00,000.00,027.9,025.6,000.0,036.1,029.4,10.8,0002.6,0010.46,0004.15,0003.44
2023-09-25 21:22:00,SystemResetWarning,0835.0,5.01,000.00,027.8,024.2,000.0,036.0,029.2,11.0,0002.5,0010.61,0004.13,0003.45
2023-09-25 21:23:00,SystemResetWarning,0835.0,5.01,000.00,027.7,024.2,000.0,036.0,029.1,11.3,0003.0,0010.72,0004.14,0003.47
2023-09-25 21:24:00,SystemResetWarning,0835.0,5.01,000.00,027.7,024.5,000.0,036.0,029.1,11.2,0003.1,0011.16,0004.13,0003.50
2023-09-25 21:25:00,SystemResetWarning,0835.0,4.99,000.00,027.6,024.9,000.0,036.0,029.1,11.1,0003.3,0011.45,0004.17,0003.51
2023-09-25 21:26:00,SystemResetWarning,0835.0,5.00,000.00,027.7,025.3,000.0,036.0,029.2,11.1,0003.2,0011.49,0004.19,0003.52
2023-09-25 21:27:00,SystemResetWarning,0835.1,5.00,000.00,027.7,025.7,000.0,036.0,029.3,11.2,0003.2,0013.58,0004.22,0003.53
2023-09-25 21:28:00,SystemResetWarning,0835.0,5.00,000.00,027.7,026.1,000.0,036.1,029.4,11.2,0002.7,0014.34,0004.25,0003.55
2023-09-25 21:29:00,SystemResetWarning,0835.0,5.00,000.00,027.8,026.4,000.0,036.1,029.5,11.1,0002.2,0014.34,0004.31,0003.58
2023-09-25 21:30:00,SystemResetWarning,0835.1,5.00,000.00,027.8,026.7,000.0,036.1,029.6,11.1,0002.4,0014.58,0004.40,0003.62
2023-09-25 21:31:00,SystemResetWarning,0835.0,5.00,000.00,027.9,026.9,000.0,036.1,029.7,10.9,0002.8,0015.65,0004.45,0003.65
2023-09-25 21:32:00,SystemResetWarning,0835.0,4.99,000.00,028.0,026.8,000.0,036.1,029.7,10.5,0002.9,0015.44,0004.48,0003.67
2023-09-25 21:33:00,SystemResetWarning,0835.0,5.00,000.00,027.9,025.3,000.0,036.1,029.3,10.6,0002.9,0015.10,0004.51,0003.68
2023-09-25 21:34:00,SystemResetWarning,0835.0,5.00,000.00,027.8,024.2,000.0,036.0,029.1,11.5,0001.5,0015.34,0004.55,0003.69
2023-09-25 21:35:00,SystemResetWarning,0835.0,5.01,000.00,027.7,024.3,000.0,036.0,029.1,11.6,0000.1,0015.78,0004.56,0003.68
2023-09-25 21:36:00,SystemResetWarning,0835.0,5.00,000.00,027.6,024.6,000.0,036.0,029.1,11.7,0000.0,0015.81,0004.60,0003.69
2023-09-25 21:37:00,SystemResetWarning,0835.0,4.99,000.00,027.6,025.0,000.0,036.0,029.1,11.8,0000.0,0016.86,0004.61,0003.69
2023-09-25 21:38:00,SystemResetWarning,0835.0,5.00,000.00,027.7,025.5,000.0,036.0,029.2,11.5,0000.0,0015.95,0004.60,0003.69
2023-09-25 21:39:00,SystemResetWarning,0835.0,5.01,000.00,027.7,025.8,000.0,036.0,029.3,11.6,0000.0,0015.31,0004.64,0003.68
2023-09-25 21:40:00,SystemResetWarning,0835.0,5.01,000.00,027.8,026.2,000.0,036.1,029.4,11.3,0000.0,0016.90,0004.66,0003.68
2023-09-25 21:41:00,SystemResetWarning,0835.1,5.00,000.00,027.8,026.5,000.0,036.1,029.5,11.6,0000.0,0016.47,0004.63,0003.66
2023-09-25 21:42:00,SystemResetWarning,0835.1,5.00,000.00,027.9,026.7,000.0,036.1,029.6,11.1,0000.0,0016.04,0004.69,0003.65
2023-09-25 21:43:00,SystemResetWarning,0835.1,5.00,000.00,027.9,027.0,000.0,036.1,029.7,10.7,0000.0,0016.12,0004.69,0003.63
2023-09-25 21:44:00,SystemResetWarning,0835.1,4.98,000.00,028.0,026.5,000.0,036.1,029.7,10.3,0000.0,0016.56,0004.72,0003.64
2023-09-25 21:45:00,SystemResetWarning,0835.0,5.00,000.00,027.9,024.9,000.0,036.1,029.2,10.2,0000.0,0017.09,0004.75,0003.64
2023-09-25 21:46:00,SystemResetWarning,0835.0,5.00,000.00,027.8,024.2,000.0,036.0,029.1,10.2,0000.0,0016.86,0004.79,0003.65
2023-09-25 21:47:00,SystemResetWarning,0835.0,5.01,000.00,027.7,024.5,000.0,036.0,029.1,10.0,0000.0,0016.86,0004.75,0003.65
2023-09-25 21:48:00,SystemResetWarning,0835.0,5.01,000.00,027.7,024.8,000.0,036.0,029.1,10.1,0000.0,0017.20,0004.79,0003.65
2023-09-25 21:49:00,SystemResetWarning,0835.0,5.00,000.00,027.7,025.2,000.0,036.0,029.2,10.0,0000.0,0018.48,0004.82,0003.64
2023-09-25 21:50:00,SystemResetWarning,0835.0,5.00,000.00,027.7,025.6,000.0,036.0,029.3,10.2,0000.0,0019.67,0004.85,0003.63
2023-09-25 21:51:00,SystemResetWarning,0835.0,4.99,000.00,027.7,026.0,000.0,036.1,029.4,10.3,0000.0,0018.26,0004.88,0003.61
2023-09-25 21:52:00,SystemResetWarning,0835.0,5.00,000.00,027.8,026.3,000.0,036.1,029.5,10.0,0000.0,0018.71,0004.87,0003.60
2023-09-25 21:53:00,SystemResetWarning,0835.0,5.00,000.00,027.8,026.6,000.0,036.1,029.6,9.9,0000.0,0019.06,0004.86,0003.59
2023-09-25 21:54:00,SystemResetWarning,0835.0,5.00,000.00,027.9,026.8,000.0,036.1,029.7,10.1,0000.0,0019.13,0004.85,0003.59
2023-09-25 21:55:00,SystemResetWarning,0835.0,5.00,000.00,028.0,027.0,000.0,036.2,029.7,10.2,0000.0,0019.23,0004.86,0003.58
2023-09-25 21:56:00,SystemResetWarning,0834.9,4.98,000.00,028.0,026.1,000.0,036.1,029.6,10.1,0000.0,0018.74,0004.90,0003.57
2023-09-25 21:57:00,SystemResetWarning,0835.0,5.01,000.00,027.9,024.5,000.0,036.1,029.2,9.8,0000.0,0018.42,0004.90,0003.57
2023-09-25 21:58:00,SystemResetWarning,0834.9,5.01,000.00,027.8,024.2,000.0,036.0,029.2,9.8,0000.3,0020.01,0004.93,0003.55
2023-09-25 21:59:00,SystemResetWarning,0835.0,5.00,000.00,027.7,024.5,000.0,036.0,029.1,10.0,0000.5,0020.38,0004.91,0003.53
